XNO9K VHHH-WSSS

Flight info

Callsign XNO9K
Flight time 3h 20m
Altitude 38000
Route PECAN V12 EPDOS L642 ENBOK/N0487F400 L642 EPKAL/K0902F400 L642 ESPOB/N0486F400 Q801 ESBUM/N0484F410 Q802 ELALO ELALO1B
Aircraft A35K/H-SDE2E3GHIJ3J4J5LM1ORWXY/LB1D1

Departure

Time 2026-05-04 06:05
Airport Hong Kong International Airport (VHHH)

Arrival

Time 2026-05-04 09:25
Airport Singapore Changi Airport (WSSS)
Time Latitude Longitude Altitude Speed Heading
2026-05-04 05:36 22.31747 113.93278 38 ft 0 kts 71°
2026-05-04 05:51 22.31742 113.93263 38 ft 4 kts 71°
2026-05-04 05:51 22.31734 113.93235 35 ft 4 kts 71°
2026-05-04 05:52 22.31727 113.93213 35 ft 4 kts 72°
2026-05-04 05:52 22.31722 113.93186 37 ft 4 kts 103°
2026-05-04 05:52 22.31733 113.93169 36 ft 3 kts 161°
2026-05-04 05:52 22.31759 113.93159 34 ft 4 kts 161°
2026-05-04 05:53 22.31769 113.93156 35 ft 0 kts 161°
2026-05-04 05:56 22.31758 113.93160 38 ft 3 kts 161°
2026-05-04 05:56 22.31723 113.93173 38 ft 7 kts 161°
2026-05-04 05:57 22.31665 113.93187 38 ft 10 kts 179°
2026-05-04 05:57 22.31599 113.93148 38 ft 12 kts 237°
2026-05-04 05:57 22.31569 113.93050 38 ft 15 kts 253°
2026-05-04 05:57 22.31532 113.92933 38 ft 18 kts 250°
2026-05-04 05:58 22.31493 113.92802 38 ft 16 kts 262°
2026-05-04 05:58 22.31527 113.92679 38 ft 19 kts 295°
2026-05-04 05:58 22.31587 113.92545 38 ft 21 kts 295°
2026-05-04 05:58 22.31630 113.92450 38 ft 15 kts 295°
2026-05-04 05:59 22.31631 113.92335 38 ft 17 kts 253°
2026-05-04 05:59 22.31590 113.92207 38 ft 19 kts 251°
2026-05-04 05:59 22.31542 113.92060 38 ft 22 kts 251°
2026-05-04 05:59 22.31490 113.91896 38 ft 24 kts 251°
2026-05-04 06:00 22.31432 113.91717 38 ft 26 kts 251°
2026-05-04 06:00 22.31370 113.91522 38 ft 28 kts 251°
2026-05-04 06:00 22.31303 113.91317 38 ft 30 kts 251°
2026-05-04 06:00 22.31232 113.91096 38 ft 32 kts 251°
2026-05-04 06:01 22.31180 113.90936 38 ft 21 kts 251°
2026-05-04 06:01 22.31128 113.90776 38 ft 24 kts 251°
2026-05-04 06:03 22.30915 113.89823 38 ft 2 kts 338°
2026-05-04 06:03 22.30941 113.89813 38 ft 6 kts 340°
2026-05-04 06:05 22.31375 113.90683 37 ft 130 kts 71°
2026-05-04 06:05 22.32103 113.93164 852 ft 186 kts 74°
2026-05-04 06:05 22.32496 113.94501 1708 ft 196 kts 70°
2026-05-04 06:06 22.32999 113.95956 2213 ft 215 kts 70°
2026-05-04 06:06 22.33427 113.97531 2952 ft 221 kts 78°
2026-05-04 06:06 22.33726 113.99186 3699 ft 228 kts 82°
2026-05-04 06:06 22.33777 114.00931 4371 ft 238 kts 98°
2026-05-04 06:07 22.33280 114.02651 5033 ft 244 kts 120°
2026-05-04 06:07 22.32230 114.04086 5621 ft 243 kts 142°
2026-05-04 06:07 22.30848 114.05133 5919 ft 244 kts 152°
2026-05-04 06:07 22.29394 114.06055 6250 ft 248 kts 153°
2026-05-04 06:08 22.27888 114.07004 6980 ft 252 kts 153°
2026-05-04 06:08 22.26349 114.07980 7891 ft 254 kts 155°
2026-05-04 06:08 22.24729 114.08627 8754 ft 249 kts 178°
2026-05-04 06:08 22.22990 114.08735 9472 ft 258 kts 186°
2026-05-04 06:09 22.21119 114.08701 9966 ft 277 kts 187°
2026-05-04 06:09 22.19136 114.08665 10514 ft 296 kts 185°
2026-05-04 06:11 22.05811 114.19493 14259 ft 365 kts 187°
2026-05-04 06:11 22.03329 114.19078 14762 ft 360 kts 198°
2026-05-04 06:13 21.90693 114.07181 17875 ft 364 kts 249°
2026-05-04 06:14 21.81027 113.94948 21171 ft 400 kts 196°
2026-05-04 06:14 21.78203 113.94792 21700 ft 414 kts 178°
2026-05-04 06:15 21.75362 113.95525 22231 ft 427 kts 164°
2026-05-04 06:15 21.72581 113.96698 22764 ft 431 kts 164°
2026-05-04 06:15 21.69745 113.97764 23299 ft 433 kts 167°
2026-05-04 06:15 21.66841 113.98640 23776 ft 434 kts 171°
2026-05-04 06:16 21.63878 113.99301 24206 ft 435 kts 175°
2026-05-04 06:16 21.60873 113.99720 24656 ft 436 kts 180°
2026-05-04 06:16 21.57840 114.00011 25098 ft 442 kts 177°
2026-05-04 06:16 21.54796 114.00726 25556 ft 452 kts 168°
2026-05-04 06:17 21.51784 114.01758 26068 ft 457 kts 167°
2026-05-04 06:17 21.48729 114.02729 26595 ft 458 kts 171°
2026-05-04 06:17 21.45605 114.03375 27127 ft 456 kts 178°
2026-05-04 06:17 21.42449 114.03549 27638 ft 454 kts 186°
2026-05-04 06:18 21.39286 114.03409 28165 ft 456 kts 188°
2026-05-04 06:18 21.36108 114.03162 28649 ft 459 kts 189°
2026-05-04 06:18 21.32911 114.02880 29158 ft 463 kts 189°
2026-05-04 06:20 21.09803 114.01199 32006 ft 486 kts 188°
2026-05-04 06:20 21.06423 114.00976 32358 ft 489 kts 188°
2026-05-04 06:21 20.92864 113.99839 34008 ft 487 kts 195°
2026-05-04 06:21 20.89543 113.99156 34408 ft 485 kts 196°
2026-05-04 06:22 20.86236 113.98421 34816 ft 483 kts 197°
2026-05-04 06:22 20.82956 113.97661 35224 ft 482 kts 197°
2026-05-04 06:25 20.40604 113.87780 38991 ft 479 kts 197°
2026-05-04 06:26 20.34094 113.86272 38992 ft 479 kts 197°
2026-05-04 06:26 20.27578 113.84765 38988 ft 479 kts 197°
2026-05-04 06:27 20.11275 113.80999 38988 ft 479 kts 197°
2026-05-04 06:28 20.05858 113.79749 38987 ft 479 kts 196°
2026-05-04 06:28 19.99304 113.78239 38988 ft 479 kts 196°
2026-05-04 06:29 19.92836 113.76749 38985 ft 479 kts 196°
2026-05-04 06:29 19.86322 113.75250 38985 ft 479 kts 196°
2026-05-04 06:30 19.79810 113.73753 38977 ft 479 kts 197°
2026-05-04 06:30 19.73284 113.72254 38985 ft 479 kts 196°
2026-05-04 06:31 19.66765 113.70757 38983 ft 479 kts 196°
2026-05-04 06:31 19.60242 113.69262 38982 ft 479 kts 196°
2026-05-04 06:33 19.34157 113.63292 38977 ft 479 kts 196°
2026-05-04 06:34 19.27643 113.61804 38980 ft 479 kts 196°
2026-05-04 06:34 19.21127 113.60317 38977 ft 479 kts 196°
2026-05-04 06:36 18.95048 113.54568 38972 ft 481 kts 192°
2026-05-04 06:37 18.88396 113.53699 38964 ft 482 kts 191°
2026-05-04 06:37 18.81729 113.52855 38972 ft 482 kts 191°
2026-05-04 06:38 18.75084 113.51945 38969 ft 482 kts 191°
2026-05-04 06:40 18.52550 113.46634 39486 ft 466 kts 216°
2026-05-04 06:40 18.49852 113.44746 39727 ft 465 kts 218°
2026-05-04 06:40 18.47221 113.42773 39912 ft 465 kts 219°
2026-05-04 06:40 18.44610 113.40751 39969 ft 466 kts 219°
2026-05-04 06:41 18.39417 113.36682 39961 ft 465 kts 219°
2026-05-04 06:41 18.34215 113.32635 39967 ft 465 kts 219°
2026-05-04 06:42 18.28995 113.28608 39952 ft 465 kts 219°
2026-05-04 06:44 18.08108 113.12567 39960 ft 465 kts 219°
2026-05-04 06:44 18.02888 113.08564 39962 ft 464 kts 219°
2026-05-04 06:45 17.97699 113.04589 39963 ft 465 kts 219°
2026-05-04 06:45 17.92475 113.00589 39961 ft 465 kts 219°
2026-05-04 06:46 17.87249 112.96591 39956 ft 465 kts 219°
2026-05-04 06:46 17.82033 112.92575 39959 ft 465 kts 219°
2026-05-04 06:48 17.61374 112.76283 39959 ft 465 kts 219°
2026-05-04 06:50 17.40692 112.60084 39958 ft 465 kts 219°
2026-05-04 06:51 17.35513 112.56034 39949 ft 465 kts 219°
2026-05-04 06:51 17.30332 112.51985 39950 ft 465 kts 219°
2026-05-04 06:52 17.25148 112.47937 39954 ft 465 kts 219°
2026-05-04 06:52 17.19967 112.43894 39951 ft 465 kts 219°
2026-05-04 06:53 17.14780 112.39850 39950 ft 465 kts 219°
2026-05-04 06:53 17.09597 112.35811 39945 ft 465 kts 219°
2026-05-04 06:54 17.04413 112.31776 39948 ft 464 kts 219°
2026-05-04 06:54 16.99232 112.27746 39952 ft 464 kts 219°
2026-05-04 06:55 16.94016 112.23769 39951 ft 464 kts 218°
2026-05-04 06:55 16.88782 112.19817 39952 ft 464 kts 218°
2026-05-04 06:57 16.67897 112.04018 39944 ft 464 kts 218°
2026-05-04 06:58 16.62674 112.00070 39944 ft 464 kts 218°
2026-05-04 06:58 16.57447 111.96122 39943 ft 464 kts 218°
2026-05-04 06:59 16.52221 111.92177 39933 ft 464 kts 218°
2026-05-04 06:59 16.46985 111.88227 39939 ft 465 kts 218°
2026-05-04 07:01 16.25999 111.72426 39939 ft 466 kts 218°
2026-05-04 07:02 16.20747 111.68478 39936 ft 466 kts 218°
2026-05-04 07:02 16.15480 111.64521 39936 ft 468 kts 218°
2026-05-04 07:03 16.10202 111.60559 39939 ft 468 kts 218°
2026-05-04 07:03 16.04921 111.56597 39936 ft 468 kts 218°
2026-05-04 07:04 15.99675 111.52665 39936 ft 468 kts 218°
2026-05-04 07:04 15.94391 111.48707 39936 ft 468 kts 218°
2026-05-04 07:05 15.89102 111.44746 39930 ft 471 kts 218°
2026-05-04 07:05 15.83762 111.40750 39932 ft 474 kts 218°
2026-05-04 07:06 15.75737 111.34752 39933 ft 474 kts 218°
2026-05-04 07:07 15.70382 111.30752 39931 ft 474 kts 218°
2026-05-04 07:09 15.48909 111.14739 39930 ft 476 kts 217°
2026-05-04 07:09 15.43524 111.10730 39927 ft 477 kts 218°
2026-05-04 07:10 15.38131 111.06718 39928 ft 477 kts 217°
2026-05-04 07:12 15.16772 110.90526 39928 ft 475 kts 218°
2026-05-04 07:12 15.11435 110.86475 39928 ft 475 kts 218°
2026-05-04 07:13 15.06099 110.82430 39926 ft 475 kts 218°
2026-05-04 07:13 15.00769 110.78392 39926 ft 475 kts 218°
2026-05-04 07:14 14.87418 110.68287 39920 ft 476 kts 218°
2026-05-04 07:15 14.82066 110.64241 39922 ft 476 kts 218°
2026-05-04 07:15 14.76723 110.60204 39921 ft 476 kts 218°
2026-05-04 07:16 14.71378 110.56167 39921 ft 476 kts 218°
2026-05-04 07:16 14.66935 110.52814 39920 ft 476 kts 218°
2026-05-04 07:17 14.61584 110.48778 39918 ft 476 kts 218°
2026-05-04 07:17 14.56234 110.44745 39919 ft 475 kts 218°
2026-05-04 07:18 14.50056 110.40092 39922 ft 472 kts 218°
2026-05-04 07:18 14.45616 110.36749 39924 ft 472 kts 218°
2026-05-04 07:19 14.40309 110.32756 39918 ft 472 kts 218°
2026-05-04 07:19 14.35043 110.28796 39920 ft 472 kts 218°
2026-05-04 07:20 14.29730 110.24803 39918 ft 472 kts 218°
2026-05-04 07:20 14.24416 110.20812 39919 ft 472 kts 218°
2026-05-04 07:22 14.03239 110.04929 39921 ft 470 kts 217°
2026-05-04 07:23 13.97945 110.00965 39918 ft 471 kts 217°
2026-05-04 07:23 13.92582 109.97152 39920 ft 472 kts 213°
2026-05-04 07:24 13.86987 109.93632 39916 ft 472 kts 212°
2026-05-04 07:24 13.81369 109.90126 39916 ft 472 kts 212°
2026-05-04 07:26 13.58954 109.75759 39915 ft 479 kts 213°
2026-05-04 07:27 13.53289 109.72124 39910 ft 480 kts 213°
2026-05-04 07:27 13.47620 109.68490 39924 ft 480 kts 213°
2026-05-04 07:28 13.41994 109.64885 39912 ft 480 kts 213°
2026-05-04 07:28 13.36335 109.61261 39923 ft 478 kts 214°
2026-05-04 07:29 13.30689 109.57647 39926 ft 477 kts 214°
2026-05-04 07:29 13.25048 109.54038 39914 ft 477 kts 214°
2026-05-04 07:30 13.19409 109.50433 39915 ft 477 kts 214°
2026-05-04 07:30 13.13770 109.46829 39933 ft 477 kts 214°
2026-05-04 07:31 13.08137 109.43231 39910 ft 476 kts 213°
2026-05-04 07:33 12.85641 109.28882 39917 ft 477 kts 213°
2026-05-04 07:33 12.80004 109.25291 39937 ft 477 kts 213°
2026-05-04 07:34 12.74363 109.21700 39935 ft 477 kts 212°
2026-05-04 07:34 12.68716 109.18107 39941 ft 479 kts 212°
2026-05-04 07:35 12.63053 109.14508 39939 ft 479 kts 212°
2026-05-04 07:35 12.57389 109.10912 39946 ft 480 kts 212°
2026-05-04 07:36 12.51717 109.07311 39940 ft 479 kts 212°
2026-05-04 07:38 12.28911 108.92854 39960 ft 487 kts 213°
2026-05-04 07:38 12.23149 108.89208 39957 ft 487 kts 213°
2026-05-04 07:39 12.17388 108.85563 39958 ft 487 kts 213°
2026-05-04 07:39 12.11629 108.81922 39967 ft 487 kts 213°
2026-05-04 07:40 12.05853 108.78272 39965 ft 490 kts 212°
2026-05-04 07:40 12.00071 108.74618 39965 ft 485 kts 212°
2026-05-04 07:41 11.94359 108.71011 39955 ft 481 kts 212°
2026-05-04 07:41 11.88659 108.67414 39962 ft 481 kts 212°
2026-05-04 07:42 11.82958 108.63819 39955 ft 482 kts 212°
2026-05-04 07:42 11.77253 108.60225 39947 ft 481 kts 212°
2026-05-04 07:43 11.71543 108.56626 39958 ft 484 kts 213°
2026-05-04 07:43 11.65801 108.53010 39939 ft 485 kts 213°
2026-05-04 07:44 11.60058 108.49395 39940 ft 485 kts 212°
2026-05-04 07:44 11.54304 108.45776 39918 ft 485 kts 212°
2026-05-04 07:45 11.48558 108.42165 39922 ft 485 kts 213°
2026-05-04 07:45 11.42863 108.38586 39905 ft 482 kts 213°
2026-05-04 07:46 11.37125 108.34981 39910 ft 486 kts 214°
2026-05-04 07:46 11.31360 108.31361 39907 ft 487 kts 213°
2026-05-04 07:47 11.25587 108.27739 39890 ft 487 kts 213°
2026-05-04 07:49 11.02516 108.13280 39875 ft 487 kts 213°
2026-05-04 07:49 10.96748 108.09669 39875 ft 487 kts 214°
2026-05-04 07:50 10.91018 108.06077 39874 ft 487 kts 213°
2026-05-04 07:50 10.85341 108.02328 39876 ft 486 kts 216°
2026-05-04 07:51 10.79700 107.98525 39880 ft 486 kts 216°
2026-05-04 07:51 10.74035 107.94733 39876 ft 491 kts 214°
2026-05-04 07:52 10.68287 107.90911 39873 ft 495 kts 214°
2026-05-04 07:52 10.62507 107.87079 39868 ft 496 kts 214°
2026-05-04 07:54 10.39386 107.71781 39870 ft 493 kts 214°
2026-05-04 07:55 10.33660 107.68007 39869 ft 489 kts 214°
2026-05-04 07:55 10.27957 107.64249 39868 ft 489 kts 215°
2026-05-04 07:56 10.22251 107.60490 39871 ft 489 kts 214°
2026-05-04 07:56 10.16581 107.56758 39869 ft 489 kts 214°
2026-05-04 07:57 10.10871 107.53003 39869 ft 489 kts 214°
2026-05-04 07:57 10.05159 107.49234 39867 ft 490 kts 214°
2026-05-04 07:58 9.99441 107.45459 39857 ft 491 kts 215°
2026-05-04 07:58 9.93712 107.41679 39871 ft 491 kts 214°
2026-05-04 07:59 9.87983 107.37904 39856 ft 491 kts 214°
2026-05-04 07:59 9.82264 107.34138 39870 ft 490 kts 214°
2026-05-04 08:00 9.76547 107.30374 39869 ft 490 kts 214°
2026-05-04 08:02 9.53523 107.15232 39874 ft 495 kts 213°
2026-05-04 08:02 9.47741 107.11434 39875 ft 495 kts 213°
2026-05-04 08:03 9.41965 107.07640 39872 ft 495 kts 213°
2026-05-04 08:03 9.36176 107.03839 39859 ft 496 kts 212°
2026-05-04 08:04 9.30392 107.00044 39875 ft 495 kts 212°
2026-05-04 08:04 9.24605 106.96248 39859 ft 495 kts 212°
2026-05-04 08:05 9.18827 106.92460 39856 ft 495 kts 212°
2026-05-04 08:05 9.13050 106.88675 39875 ft 495 kts 212°
2026-05-04 08:06 9.07269 106.84887 39874 ft 495 kts 212°
2026-05-04 08:06 9.02464 106.81740 39873 ft 496 kts 212°
2026-05-04 08:08 8.79282 106.66573 39872 ft 496 kts 211°
2026-05-04 08:11 8.52942 106.50018 39873 ft 496 kts 210°
2026-05-04 08:11 8.44126 106.44550 39876 ft 496 kts 210°
2026-05-04 08:12 8.38249 106.40902 39870 ft 496 kts 210°
2026-05-04 08:12 8.32370 106.37256 39855 ft 496 kts 210°
2026-05-04 08:13 8.26479 106.33605 39867 ft 496 kts 210°
2026-05-04 08:13 8.20642 106.29988 39866 ft 494 kts 210°
2026-05-04 08:14 8.14782 106.26359 39857 ft 494 kts 210°
2026-05-04 08:16 7.91324 106.11842 39857 ft 495 kts 210°
2026-05-04 08:16 7.85446 106.08207 39858 ft 496 kts 210°
2026-05-04 08:17 7.79563 106.04571 39876 ft 496 kts 210°
2026-05-04 08:17 7.73686 106.00939 39877 ft 496 kts 210°
2026-05-04 08:19 7.50272 105.86484 39872 ft 493 kts 210°
2026-05-04 08:20 7.44419 105.82873 39870 ft 493 kts 210°
2026-05-04 08:20 7.38564 105.79262 39870 ft 493 kts 210°
2026-05-04 08:21 7.32711 105.75653 39854 ft 493 kts 210°
2026-05-04 08:21 7.26846 105.72039 39869 ft 495 kts 210°
2026-05-04 08:22 7.20968 105.68417 39875 ft 496 kts 210°
2026-05-04 08:24 6.97471 105.54014 39870 ft 494 kts 207°
2026-05-04 08:24 6.91350 105.50891 39853 ft 494 kts 204°
2026-05-04 08:25 6.85153 105.47878 39853 ft 495 kts 205°
2026-05-04 08:25 6.78975 105.44803 39855 ft 495 kts 205°
2026-05-04 08:27 6.54354 105.32285 39855 ft 497 kts 205°
2026-05-04 08:28 6.48186 105.29151 39860 ft 497 kts 205°
2026-05-04 08:28 6.42014 105.26016 39856 ft 495 kts 206°
2026-05-04 08:29 6.35875 105.22899 39855 ft 494 kts 206°
2026-05-04 08:31 6.11350 105.10453 39850 ft 495 kts 206°
2026-05-04 08:33 5.86720 104.97967 39855 ft 496 kts 206°
2026-05-04 08:35 5.62143 104.85520 39858 ft 493 kts 206°
2026-05-04 08:35 5.56024 104.82422 39862 ft 493 kts 206°
2026-05-04 08:37 5.34648 104.71609 39861 ft 492 kts 206°
2026-05-04 08:38 5.28523 104.68512 39847 ft 492 kts 206°
2026-05-04 08:38 5.22403 104.65418 39845 ft 492 kts 206°
2026-05-04 08:40 5.00991 104.54600 40171 ft 493 kts 206°
2026-05-04 08:40 4.97930 104.53054 40452 ft 491 kts 206°
2026-05-04 08:40 4.94878 104.51512 40712 ft 490 kts 206°
2026-05-04 08:41 4.91804 104.50027 40833 ft 490 kts 202°
2026-05-04 08:41 4.85314 104.48286 40847 ft 486 kts 185°
2026-05-04 08:42 4.78583 104.48530 40848 ft 485 kts 172°
2026-05-04 08:42 4.71869 104.49386 40849 ft 487 kts 172°
2026-05-04 08:43 4.65147 104.50245 40851 ft 487 kts 172°
2026-05-04 08:43 4.58422 104.51097 40848 ft 487 kts 172°
2026-05-04 08:44 4.51689 104.51947 40847 ft 487 kts 172°
2026-05-04 08:46 4.24789 104.55340 40844 ft 487 kts 172°
2026-05-04 08:46 4.18063 104.56161 40845 ft 487 kts 173°
2026-05-04 08:47 4.11306 104.56794 40846 ft 487 kts 173°
2026-05-04 08:47 4.04557 104.57434 40845 ft 487 kts 173°
2026-05-04 08:48 3.97802 104.58089 40844 ft 487 kts 173°
2026-05-04 08:48 3.91054 104.58748 40847 ft 487 kts 173°
2026-05-04 08:49 3.84339 104.59405 40846 ft 487 kts 173°
2026-05-04 08:50 3.60709 104.61723 40846 ft 488 kts 173°
2026-05-04 08:51 3.53948 104.62386 40818 ft 486 kts 173°
2026-05-04 08:51 3.50602 104.62714 40344 ft 482 kts 173°
2026-05-04 08:51 3.47266 104.63041 39645 ft 483 kts 173°
2026-05-04 08:52 3.43909 104.63371 38857 ft 486 kts 173°
2026-05-04 08:52 3.40535 104.63702 38052 ft 489 kts 173°
2026-05-04 08:52 3.37138 104.64036 37178 ft 491 kts 173°
2026-05-04 08:52 3.33726 104.64371 36288 ft 495 kts 173°
2026-05-04 08:53 3.30290 104.64708 35419 ft 498 kts 174°
2026-05-04 08:54 3.05879 104.66326 29773 ft 500 kts 193°
2026-05-04 08:55 3.02645 104.65097 29106 ft 497 kts 207°
2026-05-04 08:55 2.99859 104.63080 28502 ft 494 kts 222°
2026-05-04 08:55 2.98255 104.61476 28103 ft 491 kts 225°
2026-05-04 08:55 2.95934 104.58985 27543 ft 486 kts 226°
2026-05-04 08:57 2.80266 104.42156 23529 ft 461 kts 226°
2026-05-04 09:01 2.52149 104.12168 17917 ft 352 kts 221°
2026-05-04 09:01 2.50137 104.10861 17496 ft 343 kts 198°
2026-05-04 09:01 2.47833 104.10456 17112 ft 334 kts 180°
2026-05-04 09:01 2.45527 104.10437 16736 ft 328 kts 177°
2026-05-04 09:02 2.43259 104.10459 16410 ft 325 kts 177°
2026-05-04 09:02 2.41007 104.10477 16063 ft 322 kts 178°
2026-05-04 09:02 2.38775 104.10488 15723 ft 319 kts 178°
2026-05-04 09:02 2.36569 104.10493 15454 ft 315 kts 178°
2026-05-04 09:03 2.34390 104.10497 15147 ft 312 kts 178°
2026-05-04 09:03 2.32228 104.10499 14819 ft 310 kts 178°
2026-05-04 09:03 2.30103 104.10500 14490 ft 308 kts 179°
2026-05-04 09:03 2.27962 104.10500 14164 ft 307 kts 179°
2026-05-04 09:04 2.25835 104.10501 13849 ft 305 kts 179°
2026-05-04 09:04 2.23717 104.10501 13511 ft 304 kts 179°
2026-05-04 09:04 2.21611 104.10501 13178 ft 301 kts 179°
2026-05-04 09:04 2.19526 104.10501 12868 ft 298 kts 179°
2026-05-04 09:05 2.17491 104.10501 12697 ft 287 kts 179°
2026-05-04 09:05 2.15515 104.10500 12430 ft 281 kts 179°
2026-05-04 09:05 2.13565 104.10500 12083 ft 279 kts 179°
2026-05-04 09:05 2.11641 104.10501 11780 ft 274 kts 179°
2026-05-04 09:06 2.09741 104.10501 11495 ft 271 kts 179°
2026-05-04 09:07 1.96616 104.10510 9932 ft 266 kts 179°
2026-05-04 09:08 1.94769 104.10519 9631 ft 266 kts 180°
2026-05-04 09:08 1.92925 104.10528 9326 ft 264 kts 180°
2026-05-04 09:08 1.91094 104.10536 9041 ft 262 kts 180°
2026-05-04 09:08 1.89271 104.10544 8759 ft 262 kts 180°
2026-05-04 09:09 1.87452 104.10553 8467 ft 262 kts 180°
2026-05-04 09:09 1.85633 104.10561 8229 ft 261 kts 180°
2026-05-04 09:09 1.83829 104.10569 7996 ft 259 kts 180°
2026-05-04 09:09 1.82025 104.10577 7753 ft 261 kts 180°
2026-05-04 09:10 1.80184 104.10584 7529 ft 267 kts 180°
2026-05-04 09:10 1.78327 104.10592 7293 ft 266 kts 180°
2026-05-04 09:10 1.76479 104.10601 7062 ft 265 kts 180°
2026-05-04 09:10 1.74637 104.10654 6948 ft 265 kts 176°
2026-05-04 09:11 1.72822 104.10781 6759 ft 265 kts 176°
2026-05-04 09:11 1.70921 104.10919 6641 ft 282 kts 176°
2026-05-04 09:11 1.68947 104.11071 6577 ft 286 kts 176°
2026-05-04 09:11 1.66964 104.11231 6418 ft 284 kts 176°
2026-05-04 09:12 1.65045 104.11388 6304 ft 270 kts 175°
2026-05-04 09:12 1.63217 104.11539 6193 ft 257 kts 175°
2026-05-04 09:14 1.51051 104.12553 5980 ft 250 kts 176°
2026-05-04 09:14 1.49318 104.12697 5979 ft 250 kts 175°
2026-05-04 09:14 1.47583 104.12842 5976 ft 250 kts 176°
2026-05-04 09:14 1.45851 104.12876 5975 ft 249 kts 188°
2026-05-04 09:15 1.44197 104.12413 5872 ft 247 kts 202°
2026-05-04 09:15 1.42619 104.11754 5652 ft 246 kts 204°
2026-05-04 09:15 1.41052 104.11072 5412 ft 245 kts 204°
2026-05-04 09:15 1.39486 104.10394 5158 ft 245 kts 204°
2026-05-04 09:17 1.27033 104.05101 4115 ft 241 kts 204°
2026-05-04 09:18 1.25489 104.04448 4009 ft 241 kts 204°
2026-05-04 09:18 1.23948 104.03795 3995 ft 241 kts 204°
2026-05-04 09:18 1.22404 104.03141 3997 ft 241 kts 204°
2026-05-04 09:18 1.20859 104.02486 3998 ft 241 kts 204°
2026-05-04 09:19 1.19315 104.01833 4000 ft 241 kts 204°
2026-05-04 09:19 1.17772 104.01179 4000 ft 241 kts 204°
2026-05-04 09:19 1.16273 104.00545 4000 ft 225 kts 204°
2026-05-04 09:19 1.14894 103.99923 4007 ft 216 kts 211°
2026-05-04 09:20 1.13746 103.98919 3992 ft 216 kts 241°
2026-05-04 09:20 1.13406 103.97562 3992 ft 195 kts 277°
2026-05-04 09:20 1.13956 103.96385 3990 ft 189 kts 317°
2026-05-04 09:20 1.15070 103.95694 3996 ft 191 kts 334°
2026-05-04 09:21 1.16294 103.95150 3704 ft 194 kts 337°
2026-05-04 09:21 1.17589 103.94648 3224 ft 203 kts 340°
2026-05-04 09:21 1.18916 103.94191 2946 ft 200 kts 341°
2026-05-04 09:21 1.20210 103.93773 2684 ft 196 kts 341°
2026-05-04 09:22 1.21490 103.93375 2535 ft 190 kts 342°
2026-05-04 09:22 1.22772 103.93053 2467 ft 192 kts 355°
2026-05-04 09:22 1.24089 103.93132 2301 ft 190 kts 13°
2026-05-04 09:22 1.25312 103.93678 2043 ft 192 kts 27°
2026-05-04 09:23 1.26505 103.94248 1780 ft 192 kts 22°
2026-05-04 09:23 1.27738 103.94726 1530 ft 187 kts 21°
2026-05-04 09:23 1.28914 103.95227 1279 ft 180 kts 23°
2026-05-04 09:23 1.30042 103.95708 1035 ft 172 kts 22°
2026-05-04 09:25 1.36468 103.98414 30 ft 64 kts 23°
2026-05-04 09:25 1.36757 103.98537 30 ft 41 kts 23°
2026-05-04 09:26 1.36963 103.98635 30 ft 30 kts 35°
2026-05-04 09:26 1.37075 103.98749 30 ft 17 kts 56°
2026-05-04 09:26 1.37068 103.98823 30 ft 5 kts 133°
2026-05-04 09:26 1.37056 103.98830 30 ft 4 kts 151°
2026-05-04 09:27 1.37021 103.98851 30 ft 8 kts 144°
2026-05-04 09:27 1.36971 103.98893 30 ft 11 kts 157°
2026-05-04 09:27 1.36903 103.98889 30 ft 1 kts 201°
2026-05-04 09:27 1.36885 103.98882 30 ft 5 kts 201°
2026-05-04 09:28 1.36840 103.98864 30 ft 9 kts 202°
2026-05-04 09:28 1.36770 103.98835 30 ft 13 kts 202°
2026-05-04 09:28 1.36675 103.98801 30 ft 16 kts 188°
2026-05-04 09:28 1.36568 103.98810 30 ft 12 kts 173°
2026-05-04 09:29 1.36511 103.98811 30 ft 1 kts 191°
2026-05-04 09:29 1.36495 103.98808 30 ft 3 kts 191°
2026-05-04 09:29 1.36467 103.98812 30 ft 4 kts 158°
2026-05-04 09:29 1.36451 103.98829 30 ft 3 kts 127°
2026-05-04 09:30 1.36443 103.98842 30 ft 2 kts 119°
2026-05-04 09:30 1.36432 103.98867 30 ft 4 kts 114°
2026-05-04 09:30 1.36425 103.98882 30 ft 2 kts 114°
2026-05-04 09:30 1.36421 103.98891 30 ft 0 kts 114°